Time,TemperatureF,DewpointF,PressureIn,WindDirection,WindDirectionDegrees,WindSpeedMPH,WindSpeedGustMPH,Humidity,HourlyPrecipIn,Conditions,Clouds,dailyrainin,SoftwareType,DateUTC
2013-07-15 00:00:00,72.4,62.5,30.18,South,169,4.0,22.0,71,0.00,,,0.00,Wunderground v.1.15,2013-07-15 03:00:00,
2013-07-15 00:10:00,72.3,62.8,30.18,SSW,203,5.0,5.0,72,0.00,,,0.00,Wunderground v.1.15,2013-07-15 03:10:00,
2013-07-15 00:20:00,72.0,62.5,30.21,SSW,198,4.0,22.0,72,0.00,,,0.00,Wunderground v.1.15,2013-07-15 03:20:00,
2013-07-15 00:30:00,71.7,62.6,30.20,South,174,4.0,4.0,73,0.00,,,0.00,Wunderground v.1.15,2013-07-15 03:30:00,
2013-07-15 00:40:00,71.4,62.7,30.20,SSW,203,4.0,22.0,74,0.00,,,0.00,Wunderground v.1.15,2013-07-15 03:40:00,
2013-07-15 00:50:00,71.0,62.7,30.20,SW,219,4.0,22.0,75,0.00,,,0.00,Wunderground v.1.15,2013-07-15 03:50:00,
2013-07-15 01:00:00,70.8,62.5,30.17,SSW,203,4.0,22.0,75,0.00,,,0.00,Wunderground v.1.15,2013-07-15 04:00:00,
2013-07-15 01:10:00,70.5,62.6,30.20,South,179,3.0,3.0,76,0.00,,,0.00,Wunderground v.1.15,2013-07-15 04:10:00,
2013-07-15 01:20:00,70.4,62.5,30.20,South,188,4.0,22.0,76,0.00,,,0.00,Wunderground v.1.15,2013-07-15 04:20:00,
2013-07-15 01:30:00,70.2,62.6,30.20,South,181,3.0,3.0,77,0.00,,,0.00,Wunderground v.1.15,2013-07-15 04:30:00,
2013-07-15 01:40:00,70.1,62.6,30.20,South,183,4.0,22.0,77,0.00,,,0.00,Wunderground v.1.15,2013-07-15 04:40:00,
2013-07-15 01:50:00,70.0,62.8,30.19,SE,145,4.0,4.0,78,0.00,,,0.00,Wunderground v.1.15,2013-07-15 04:50:00,
2013-07-15 02:00:00,69.9,62.7,30.19,SSW,193,4.0,22.0,78,0.00,,,0.00,Wunderground v.1.15,2013-07-15 05:00:00,
2013-07-15 02:10:00,70.0,62.8,30.19,South,170,4.0,4.0,78,0.00,,,0.00,Wunderground v.1.15,2013-07-15 05:10:00,
2013-07-15 02:20:00,69.8,62.6,30.19,SSE,158,4.0,22.0,78,0.00,,,0.00,Wunderground v.1.15,2013-07-15 05:20:00,
2013-07-15 02:30:00,69.7,62.5,30.19,South,187,4.0,22.0,78,0.00,,,0.00,Wunderground v.1.15,2013-07-15 05:30:00,
2013-07-15 02:40:00,69.5,62.3,30.18,SSW,198,3.0,22.0,78,0.00,,,0.00,Wunderground v.1.15,2013-07-15 05:40:00,
2013-07-15 02:50:00,69.4,62.6,30.18,South,183,3.0,22.0,79,0.00,,,0.00,Wunderground v.1.15,2013-07-15 05:50:00,
2013-07-15 03:00:00,69.3,62.5,30.18,SW,219,3.0,3.0,79,0.00,,,0.00,Wunderground v.1.15,2013-07-15 06:00:00,
2013-07-15 03:10:00,69.1,62.3,30.18,South,179,2.0,22.0,79,0.00,,,0.00,Wunderground v.1.15,2013-07-15 06:10:00,
2013-07-15 03:20:00,68.9,62.1,30.15,SSE,158,3.0,3.0,79,0.00,,,0.00,Wunderground v.1.15,2013-07-15 06:20:00,
2013-07-15 03:30:00,68.7,62.3,30.18,South,184,1.0,22.0,80,0.00,,,0.00,Wunderground v.1.15,2013-07-15 06:30:00,
2013-07-15 03:40:00,68.3,62.2,30.15,South,174,2.0,22.0,81,0.00,,,0.00,Wunderground v.1.15,2013-07-15 06:40:00,
2013-07-15 03:50:00,67.8,62.1,30.18,SE,139,2.0,2.0,82,0.00,,,0.00,Wunderground v.1.15,2013-07-15 06:50:00,
2013-07-15 04:00:00,67.2,61.9,30.15,SE,142,1.0,22.0,83,0.00,,,0.00,Wunderground v.1.15,2013-07-15 07:00:00,
2013-07-15 04:10:00,66.6,61.3,30.17,SE,142,1.0,22.0,83,0.00,,,0.00,Wunderground v.1.15,2013-07-15 07:10:00,
2013-07-15 04:20:00,66.4,61.8,30.17,South,170,1.0,22.0,85,0.00,,,0.00,Wunderground v.1.15,2013-07-15 07:20:00,
2013-07-15 04:30:00,66.2,61.6,30.18,SSE,155,1.0,22.0,85,0.00,,,0.00,Wunderground v.1.15,2013-07-15 07:30:00,
2013-07-15 04:40:00,65.8,61.2,30.18,SE,146,1.0,22.0,85,0.00,,,0.00,Wunderground v.1.15,2013-07-15 07:40:00,
2013-07-15 04:50:00,66.0,61.4,30.17,SE,139,2.0,22.0,85,0.00,,,0.00,Wunderground v.1.15,2013-07-15 07:50:00,
2013-07-15 05:00:00,66.2,61.6,30.17,South,172,2.0,22.0,85,0.00,,,0.00,Wunderground v.1.15,2013-07-15 08:00:00,
2013-07-15 05:10:00,65.9,61.3,30.17,South,191,1.0,22.0,85,0.00,,,0.00,Wunderground v.1.15,2013-07-15 08:10:00,
2013-07-15 05:20:00,66.1,61.5,30.17,SSE,155,2.0,22.0,85,0.00,,,0.00,Wunderground v.1.15,2013-07-15 08:20:00,
2013-07-15 05:30:00,65.8,61.2,30.17,SE,135,2.0,2.0,85,0.00,,,0.00,Wunderground v.1.15,2013-07-15 08:30:00,
2013-07-15 05:40:00,65.8,61.2,30.17,South,173,2.0,22.0,85,0.00,,,0.00,Wunderground v.1.15,2013-07-15 08:40:00,
2013-07-15 05:50:00,66.0,61.4,30.17,SSW,197,2.0,22.0,85,0.00,,,0.00,Wunderground v.1.15,2013-07-15 08:50:00,
2013-07-15 06:00:00,65.9,61.3,30.14,SSE,158,1.0,22.0,85,0.00,,,0.00,Wunderground v.1.15,2013-07-15 09:00:00,
2013-07-15 06:10:00,66.0,61.4,30.17,South,186,2.0,22.0,85,0.00,,,0.00,Wunderground v.1.15,2013-07-15 09:10:00,
2013-07-15 06:20:00,66.6,61.6,30.17,SSW,204,2.0,22.0,84,0.00,,,0.00,Wunderground v.1.15,2013-07-15 09:20:00,
2013-07-15 06:30:00,66.9,61.9,30.17,SSW,200,2.0,22.0,84,0.00,,,0.00,Wunderground v.1.15,2013-07-15 09:30:00,
2013-07-15 06:40:00,67.5,62.2,30.17,South,190,2.0,22.0,83,0.00,,,0.00,Wunderground v.1.15,2013-07-15 09:40:00,
2013-07-15 06:50:00,68.1,62.4,30.17,South,171,3.0,3.0,82,0.00,,,0.00,Wunderground v.1.15,2013-07-15 09:50:00,
2013-07-15 07:00:00,69.0,62.9,30.17,SSW,198,2.0,2.0,81,0.00,,,0.00,Wunderground v.1.15,2013-07-15 10:00:00,
2013-07-15 07:10:00,70.1,62.9,30.17,SSE,158,2.0,22.0,78,0.00,,,0.00,Wunderground v.1.15,2013-07-15 10:10:00,
2013-07-15 07:20:00,70.9,63.7,30.17,South,191,2.0,22.0,78,0.00,,,0.00,Wunderground v.1.15,2013-07-15 10:20:00,
2013-07-15 07:30:00,71.8,63.8,30.17,South,173,2.0,2.0,76,0.00,,,0.00,Wunderground v.1.15,2013-07-15 10:30:00,
2013-07-15 07:40:00,72.4,64.0,30.17,SW,214,2.0,2.0,75,0.00,,,0.00,Wunderground v.1.15,2013-07-15 10:40:00,
2013-07-15 07:50:00,73.0,64.6,30.17,SSW,203,2.0,22.0,75,0.00,,,0.00,Wunderground v.1.15,2013-07-15 10:50:00,
2013-07-15 08:00:00,74.0,65.2,30.14,South,179,3.0,3.0,74,0.00,,,0.00,Wunderground v.1.15,2013-07-15 11:00:00,
2013-07-15 08:10:00,75.0,65.4,30.14,SSW,208,3.0,22.0,72,0.00,,,0.00,Wunderground v.1.15,2013-07-15 11:10:00,
2013-07-15 08:20:00,75.7,65.6,30.14,SSW,207,2.0,22.0,71,0.00,,,0.00,Wunderground v.1.15,2013-07-15 11:20:00,
2013-07-15 08:30:00,76.0,65.9,30.16,SSW,204,3.0,3.0,71,0.00,,,0.00,Wunderground v.1.15,2013-07-15 11:30:00,
2013-07-15 08:40:00,77.1,66.6,30.14,SW,232,2.0,22.0,70,0.00,,,0.00,Wunderground v.1.15,2013-07-15 11:40:00,
2013-07-15 08:50:00,78.1,66.7,30.14,SW,222,3.0,3.0,68,0.00,,,0.00,Wunderground v.1.15,2013-07-15 11:50:00,
2013-07-15 09:00:00,79.3,67.0,30.16,SSE,161,2.0,22.0,66,0.00,,,0.00,Wunderground v.1.15,2013-07-15 12:00:00,
2013-07-15 09:10:00,79.9,66.6,30.16,SSW,195,3.0,22.0,64,0.00,,,0.00,Wunderground v.1.15,2013-07-15 12:10:00,
2013-07-15 09:20:00,80.8,65.6,30.16,West,276,3.0,22.0,60,0.00,,,0.00,Wunderground v.1.15,2013-07-15 12:20:00,
2013-07-15 09:30:00,82.0,67.2,30.16,SSE,154,3.0,22.0,61,0.00,,,0.00,Wunderground v.1.15,2013-07-15 12:30:00,
2013-07-15 09:40:00,82.7,66.9,30.16,South,179,2.0,22.0,59,0.00,,,0.00,Wunderground v.1.15,2013-07-15 12:40:00,
2013-07-15 09:50:00,83.7,65.3,30.13,SSW,204,2.0,22.0,54,0.00,,,0.00,Wunderground v.1.15,2013-07-15 12:50:00,
2013-07-15 10:00:00,84.7,66.2,30.13,SW,226,1.0,22.0,54,0.00,,,0.00,Wunderground v.1.15,2013-07-15 13:00:00,
2013-07-15 10:10:00,85.5,64.7,30.13,SW,226,2.0,22.0,50,0.00,,,0.00,Wunderground v.1.15,2013-07-15 13:10:00,
2013-07-15 10:20:00,85.6,64.8,30.16,SW,218,2.0,22.0,50,0.00,,,0.00,Wunderground v.1.15,2013-07-15 13:20:00,
2013-07-15 10:30:00,86.5,63.9,30.15,SSW,200,2.0,22.0,47,0.00,,,0.00,Wunderground v.1.15,2013-07-15 13:30:00,
2013-07-15 10:40:00,86.7,64.1,30.12,SSW,204,4.0,22.0,47,0.00,,,0.00,Wunderground v.1.15,2013-07-15 13:40:00,
2013-07-15 10:50:00,87.3,64.6,30.12,SSW,210,3.0,22.0,47,0.00,,,0.00,Wunderground v.1.15,2013-07-15 13:50:00,
2013-07-15 11:00:00,87.8,64.4,30.14,SSW,204,3.0,3.0,46,0.00,,,0.00,Wunderground v.1.15,2013-07-15 14:00:00,
2013-07-15 11:10:00,88.6,64.5,30.14,South,188,3.0,3.0,45,0.00,,,0.00,Wunderground v.1.15,2013-07-15 14:10:00,
2013-07-15 11:20:00,89.6,64.8,30.11,SW,218,2.0,22.0,44,0.00,,,0.00,Wunderground v.1.15,2013-07-15 14:20:00,
2013-07-15 11:30:00,89.2,63.8,30.14,SW,224,4.0,4.0,43,0.00,,,0.00,Wunderground v.1.15,2013-07-15 14:30:00,
2013-07-15 11:40:00,89.2,63.1,30.14,WNW,287,4.0,22.0,42,0.00,,,0.00,Wunderground v.1.15,2013-07-15 14:40:00,
2013-07-15 11:50:00,90.1,63.2,30.11,SSE,150,3.0,3.0,41,0.00,,,0.00,Wunderground v.1.15,2013-07-15 14:50:00,
2013-07-15 12:00:00,91.5,63.1,30.14,SW,229,2.0,2.0,39,0.00,,,0.00,Wunderground v.1.15,2013-07-15 15:00:00,
2013-07-15 12:10:00,92.1,63.6,30.13,SSW,211,2.0,22.0,39,0.00,,,0.00,Wunderground v.1.15,2013-07-15 15:10:00,
2013-07-15 12:20:00,92.3,63.0,30.11,WSW,249,3.0,22.0,38,0.00,,,0.00,Wunderground v.1.15,2013-07-15 15:20:00,
2013-07-15 12:30:00,93.4,63.2,30.13,West,271,2.0,2.0,37,0.00,,,0.00,Wunderground v.1.15,2013-07-15 15:30:00,
2013-07-15 12:40:00,92.7,61.8,30.13,South,191,3.0,3.0,36,0.00,,,0.00,Wunderground v.1.15,2013-07-15 15:40:00,
2013-07-15 12:50:00,93.4,61.7,30.10,SW,232,2.0,22.0,35,0.00,,,0.00,Wunderground v.1.15,2013-07-15 15:50:00,
2013-07-15 13:00:00,92.9,60.4,30.12,SSW,200,4.0,4.0,34,0.00,,,0.00,Wunderground v.1.15,2013-07-15 16:00:00,
2013-07-15 13:10:00,93.2,61.5,30.09,WSW,242,3.0,3.0,35,0.00,,,0.00,Wunderground v.1.15,2013-07-15 16:10:00,
2013-07-15 13:20:00,93.3,60.7,30.11,South,191,3.0,22.0,34,0.00,,,0.00,Wunderground v.1.15,2013-07-15 16:20:00,
2013-07-15 13:30:00,94.1,60.6,30.08,SSW,205,2.0,22.0,33,0.00,,,0.00,Wunderground v.1.15,2013-07-15 16:30:00,
2013-07-15 13:40:00,94.8,61.2,30.11,SW,228,2.0,22.0,33,0.00,,,0.00,Wunderground v.1.15,2013-07-15 16:40:00,
2013-07-15 13:50:00,93.4,60.0,30.08,SW,231,5.0,22.0,33,0.00,,,0.00,Wunderground v.1.15,2013-07-15 16:50:00,
2013-07-15 14:10:00,93.1,60.6,30.10,WNW,283,4.0,4.0,34,0.00,,,0.00,Wunderground v.1.15,2013-07-15 17:10:00,
2013-07-15 14:20:00,93.6,60.2,30.07,South,172,4.0,22.0,33,0.00,,,0.00,Wunderground v.1.15,2013-07-15 17:20:00,
2013-07-15 14:30:00,93.5,62.5,30.10,SSE,166,4.0,22.0,36,0.00,,,0.00,Wunderground v.1.15,2013-07-15 17:30:00,
2013-07-15 14:40:00,93.8,61.2,30.07,SW,233,3.0,3.0,34,0.00,,,0.00,Wunderground v.1.15,2013-07-15 17:40:00,
2013-07-15 14:50:00,93.2,62.3,30.07,SSW,202,4.0,22.0,36,0.00,,,0.00,Wunderground v.1.15,2013-07-15 17:50:00,
2013-07-15 15:00:00,93.5,64.1,30.10,SSW,201,3.0,3.0,38,0.00,,,0.00,Wunderground v.1.15,2013-07-15 18:00:00,
2013-07-15 15:10:00,94.1,63.1,30.07,SSW,210,2.0,22.0,36,0.00,,,0.00,Wunderground v.1.15,2013-07-15 18:10:00,
2013-07-15 15:20:00,93.5,62.5,30.09,North,11,3.0,3.0,36,0.00,,,0.00,Wunderground v.1.15,2013-07-15 18:20:00,
2013-07-15 15:30:00,94.0,61.4,30.08,NNE,12,2.0,2.0,34,0.00,,,0.00,Wunderground v.1.15,2013-07-15 18:30:00,
2013-07-15 15:40:00,93.6,61.0,30.06,SW,224,3.0,22.0,34,0.00,,,0.00,Wunderground v.1.15,2013-07-15 18:40:00,
2013-07-15 15:50:00,93.8,62.0,30.08,South,188,2.0,22.0,35,0.00,,,0.00,Wunderground v.1.15,2013-07-15 18:50:00,
2013-07-15 16:00:00,93.9,60.4,30.06,SW,236,3.0,3.0,33,0.00,,,0.00,Wunderground v.1.15,2013-07-15 19:00:00,
2013-07-15 16:20:00,93.0,63.6,30.08,WSW,256,3.0,22.0,38,0.00,,,0.00,Wunderground v.1.15,2013-07-15 19:20:00,
2013-07-15 16:30:00,93.4,64.0,30.05,SSW,195,2.0,2.0,38,0.00,,,0.00,Wunderground v.1.15,2013-07-15 19:30:00,
2013-07-15 16:40:00,93.3,63.9,30.08,WSW,252,3.0,22.0,38,0.00,,,0.00,Wunderground v.1.15,2013-07-15 19:40:00,
2013-07-15 16:50:00,93.2,63.1,30.05,SSW,212,3.0,3.0,37,0.00,,,0.00,Wunderground v.1.15,2013-07-15 19:50:00,
2013-07-15 17:00:00,93.2,63.8,30.08,SSW,210,2.0,2.0,38,0.00,,,0.00,Wunderground v.1.15,2013-07-15 20:00:00,
2013-07-15 17:10:00,93.0,62.9,30.05,West,262,2.0,2.0,37,0.00,,,0.00,Wunderground v.1.15,2013-07-15 20:10:00,
2013-07-15 17:20:00,92.5,63.2,30.07,South,183,4.0,4.0,38,0.00,,,0.00,Wunderground v.1.15,2013-07-15 20:20:00,
2013-07-15 17:30:00,92.5,62.4,30.04,SW,217,3.0,22.0,37,0.00,,,0.00,Wunderground v.1.15,2013-07-15 20:30:00,
2013-07-15 18:00:00,92.9,63.6,30.04,SW,225,2.0,2.0,38,0.00,,,0.00,Wunderground v.1.15,2013-07-15 21:00:00,
2013-07-15 18:10:00,92.7,64.1,30.06,SSW,211,3.0,3.0,39,0.00,,,0.00,Wunderground v.1.15,2013-07-15 21:10:00,
2013-07-15 18:30:00,92.4,63.9,30.06,South,169,3.0,3.0,39,0.00,,,0.00,Wunderground v.1.15,2013-07-15 21:30:00,
2013-07-15 18:40:00,92.6,64.8,30.03,SW,218,2.0,22.0,40,0.00,,,0.00,Wunderground v.1.15,2013-07-15 21:40:00,
2013-07-15 18:50:00,91.5,65.8,30.06,South,188,3.0,22.0,43,0.00,,,0.00,Wunderground v.1.15,2013-07-15 21:50:00,
2013-07-15 19:00:00,90.2,66.6,30.03,SSW,210,5.0,5.0,46,0.00,,,0.00,Wunderground v.1.15,2013-07-15 22:00:00,
2013-07-15 19:10:00,89.2,66.9,30.06,SE,129,2.0,22.0,48,0.00,,,0.00,Wunderground v.1.15,2013-07-15 22:10:00,
2013-07-15 19:20:00,88.1,66.5,30.03,South,186,3.0,22.0,49,0.00,,,0.00,Wunderground v.1.15,2013-07-15 22:20:00,
2013-07-15 19:30:00,87.1,66.8,30.06,SSW,205,4.0,22.0,51,0.00,,,0.00,Wunderground v.1.15,2013-07-15 22:30:00,
2013-07-15 19:40:00,86.4,67.2,30.06,SW,214,4.0,22.0,53,0.00,,,0.00,Wunderground v.1.15,2013-07-15 22:40:00,
2013-07-15 19:50:00,85.7,66.6,30.04,SW,222,3.0,22.0,53,0.00,,,0.00,Wunderground v.1.15,2013-07-15 22:50:00,
2013-07-15 20:00:00,85.1,66.6,30.06,South,174,3.0,3.0,54,0.00,,,0.00,Wunderground v.1.15,2013-07-15 23:00:00,
2013-07-15 20:10:00,84.5,66.6,30.04,SSW,203,3.0,22.0,55,0.00,,,0.00,Wunderground v.1.15,2013-07-15 23:10:00,
2013-07-15 20:20:00,83.8,66.4,30.06,SSW,200,3.0,3.0,56,0.00,,,0.00,Wunderground v.1.15,2013-07-15 23:20:00,
2013-07-15 20:30:00,83.0,66.7,30.06,SSW,206,3.0,22.0,58,0.00,,,0.00,Wunderground v.1.15,2013-07-15 23:30:00,
2013-07-15 20:40:00,82.1,66.4,30.04,South,170,3.0,3.0,59,0.00,,,0.00,Wunderground v.1.15,2013-07-15 23:40:00,
2013-07-15 20:50:00,81.3,66.1,30.07,South,186,2.0,22.0,60,0.00,,,0.00,Wunderground v.1.15,2013-07-15 23:50:00,
2013-07-15 21:00:00,81.1,65.9,30.07,SW,214,2.0,2.0,60,0.00,,,0.00,Wunderground v.1.15,2013-07-16 00:00:00,
2013-07-15 21:10:00,80.8,65.6,30.05,SSE,165,1.0,22.0,60,0.00,,,0.00,Wunderground v.1.15,2013-07-16 00:10:00,
2013-07-15 21:20:00,79.8,67.0,30.09,WNW,300,1.0,22.0,65,0.00,,,0.00,Wunderground v.1.15,2013-07-16 00:20:00,
2013-07-15 21:30:00,79.2,66.9,30.10,WSW,237,1.0,22.0,66,0.00,,,0.00,Wunderground v.1.15,2013-07-16 00:30:00,
2013-07-15 21:40:00,77.9,66.9,30.09,WSW,252,1.0,1.0,69,0.00,,,0.00,Wunderground v.1.15,2013-07-16 00:40:00,
2013-07-15 21:50:00,76.3,66.2,30.11,WSW,242,1.0,22.0,71,0.00,,,0.00,Wunderground v.1.15,2013-07-16 00:50:00,
2013-07-15 22:00:00,75.3,65.6,30.11,WSW,255,1.0,22.0,72,0.00,,,0.00,Wunderground v.1.15,2013-07-16 01:00:00,
2013-07-15 22:10:00,74.9,65.7,30.12,WNW,287,1.0,22.0,73,0.00,,,0.00,Wunderground v.1.15,2013-07-16 01:10:00,
2013-07-15 22:20:00,74.8,65.6,30.09,SSE,166,0.0,22.0,73,0.00,,,0.00,Wunderground v.1.15,2013-07-16 01:20:00,
2013-07-15 22:30:00,75.0,66.1,30.12,WSW,240,1.0,1.0,74,0.00,,,0.00,Wunderground v.1.15,2013-07-16 01:30:00,
2013-07-15 22:40:00,75.1,66.2,30.12,SW,218,1.0,1.0,74,0.00,,,0.00,Wunderground v.1.15,2013-07-16 01:40:00,
2013-07-15 22:50:00,75.1,65.9,30.12,SSE,164,1.0,1.0,73,0.00,,,0.00,Wunderground v.1.15,2013-07-16 01:50:00,
2013-07-15 23:00:00,75.1,65.9,30.13,East,79,1.0,1.0,73,0.00,,,0.00,Wunderground v.1.15,2013-07-16 02:00:00,
2013-07-15 23:10:00,75.0,65.4,30.13,ESE,102,1.0,1.0,72,0.00,,,0.00,Wunderground v.1.15,2013-07-16 02:10:00,
2013-07-15 23:20:00,74.8,65.6,30.13,WSW,249,0.0,22.0,73,0.00,,,0.00,Wunderground v.1.15,2013-07-16 02:20:00,
2013-07-15 23:40:00,74.6,66.1,30.11,West,266,1.0,22.0,75,0.00,,,0.00,Wunderground v.1.15,2013-07-16 02:40:00,
2013-07-15 23:50:00,74.5,65.7,30.11,SW,224,0.0,22.0,74,0.00,,,0.00,Wunderground v.1.15,2013-07-16 02:50:00,